Retour au catalogue

PEGASUS DEB

ActifPO
NORAD 24082·DEBRIS·🇺🇸 United States

Lancé May 19, 1994 depuis Vandenberg Space Force Base

Loading…

Prochains Passages (prochaines 24 heures)

TLE

FraisSource: Space-Track

Époque: Sep 14, 2026, 06:10 UTC

1 24082U 94029ED  26257.25727794  .00007130  00000-0  33148-3 0  9998
2 24082  81.9072 241.8877 0038051 258.1671 101.5294 15.19155814633867

Suivez PEGASUS DEB en temps réel avec AllMySat

Download on the App Store